Location: Saint-Palais-sur-Mer
(45.6429°N, 1.0859°W)
Time: 15:49:28
(UTC+01:00)

S-56A Canister/Altair - Pass Details

Date: 15 February 2026
Orbit: 633 x 2484 km, 38.9° (Epoch: 16 March)

Event Time Altitude Azimuth Distance (km) Brightness Sun altitude
Exits shadow 05:34:03 42° 235° (SW) 2,329 9.4 -27.2°
Maximum altitude 05:36:54 50° 196° (SSW) 2,274 9.6 -26.7°
Drops below altitude 10° 05:49:37 10° 127° (SE) 4,917 12.2 -24.5°
Sets 05:53:58 0° 123° (ESE) 6,057 12.9 -23.7°
